www.pogodaiklimat.ru
ПОГОДА в Худ Ривер
Время
и дата
10:15 27.05
10:35 27.05
11:15 27.05
13:35 27.05
14:15 27.05
14:35 27.05
14:55 27.05
15:15 27.05
15:35 27.05
15:55 27.05
16:15 27.05
16:35 27.05
16:55 27.05
17:15 27.05
17:35 27.05
17:55 27.05
18:15 27.05
19:55 27.05
20:15 27.05
20:35 27.05
20:55 27.05
21:35 27.05
21:55 27.05
22:55 27.05
23:15 27.05
23:35 27.05
23:55 27.05
00:15 28.05
00:35 28.05
00:55 28.05
01:15 28.05
01:35 28.05
01:55 28.05
02:15 28.05
02:55 28.05
03:15 28.05
03:35 28.05
03:55 28.05
04:15 28.05
04:35 28.05
04:55 28.05
05:15 28.05
05:35 28.05
05:55 28.05
06:15 28.05
06:35 28.05
06:55 28.05
07:15 28.05
Ветер
(напр.,м/с)
Видим. Явления Облачность Т
(С)
Тd
(С)
f
(%)
Тe
(С)
Тes
(С)
Комфортность P
(гПа)
Po
(гПа)
Тmin
(С)
Tmax
(С)
R
(мм)
R24
(мм)
S
(см)
штиль 0 16 км ясно +20.0 +9.0 49 +21 +41 комфорт 997.6
СЗ 3 16 км ясно +21.0 +9.0 46 +23 +35 комфорт 997.3
СЗ 4
{7}
16 км ясно +21.0 +8.0 43 +22 +34 комфорт 996.9
СЗ 5
{7}
16 км ясно +22.0 +7.0 38 +23 +32 комфорт 995.6
СЗ 5
{9}
16 км ясно +23.0 +7.0 36 +24 +32 комфорт 994.9
СЗ 5
{8}
16 км ясно +23.0 +6.0 33 +23 +32 комфорт 994.9
СЗ 6
{10}
16 км ясно +23.0 +6.0 33 +23 +30 комфорт 994.6
СЗ 5
{9}
16 км ясно +23.0 +6.0 33 +23 +30 комфорт 994.6
СЗ 4 16 км ясно +25.0 +6.0 30 +25 +33 комфорт 994.3
СЗ 4 16 км ясно +25.0 +7.0 32 +25 +33 комфорт 994.3
З 3 16 км ясно +25.0 +7.0 32 +25 +32 комфорт 993.9
З 3 16 км ясно +25.0 +7.0 32 +25 +32 комфорт 993.9
З 2 16 км ясно +25.0 +7.0 32 +25 +33 комфорт 993.6
СЗ 2 16 км ясно +25.0 +8.0 34 +25 +30 комфорт 993.6
СЗ 2 16 км ясно +24.0 +8.0 36 +24 +29 комфорт 993.6
СЗ 2 16 км ясно +23.0 +8.0 38 +24 +29 комфорт 993.6
штиль 0 16 км ясно +22.0 +8.0 41 +23 +26 комфорт 993.6
ЮЗ 2 16 км ясно +18.0 +8.0 52 +19 +19 993.9
штиль 0 16 км ясно +18.0 +7.0 49 +18 +18 994.3
штиль 0 16 км ясно +18.0 +6.0 45 +18 +18 994.6
штиль 0 16 км ясно +16.0 +7.0 55 +16 +16 994.6
штиль 0 16 км ясно +15.0 +7.0 59 +15 +15 994.6
штиль 0 16 км ясно +15.0 +7.0 59 +15 +15 994.6
штиль 0 16 км ясно +13.0 +8.0 72 +13 +13 994.6
штиль 0 16 км ясно +13.0 +7.0 67 +13 +13 994.6
штиль 0 16 км ясно +13.0 +7.0 67 +13 +13 994.3
штиль 0 16 км ясно +12.0 +8.0 76 +12 +12 994.3
штиль 0 16 км ясно +12.0 +7.0 71 +12 +12 994.3
штиль 0 16 км ясно +12.0 +7.0 71 +12 +12 993.9
штиль 0 16 км 5/0 2400 m
[Ac]
+12.0 +7.0 71 +12 +12 993.9
штиль 0 16 км 5/0 2400 m
[Ac]
+12.0 +7.0 71 +12 +12 993.9
штиль 0 16 км 8/0 2400 m
[Ac]
+11.0 +9.0 87 +10 +10 993.6
штиль 0 16 км 8/0 2400 m
[Ac]
+13.0 +8.0 72 +13 +13 993.6
штиль 0 16 км 5/0 2400 m
[Ac]
+12.0 +7.0 71 +12 +12 993.6
штиль 0 16 км ясно +12.0 +8.0 76 +12 +12 993.9
штиль 0 16 км ясно +11.0 +8.0 82 +10 +10 993.9
штиль 0 16 км ясно +12.0 +8.0 76 +12 +12 993.9
З 2 16 км ясно +13.0 +9.0 77 +12 +12 993.9
СЗ 4 16 км 5/5 1500 м +13.0 +9.0 77 +11 +11 994.3
СЗ 4
{8}
16 км 5/5 1500 м +13.0 +9.0 77 +11 +11 994.3
СЗ 4 16 км ясно +13.0 +9.0 77 +11 +11 994.6
СЗ 3 16 км 5/5 1440 м +13.0 +9.0 77 +12 +12 994.6
З 3
{8}
16 км 5/5 1500 м +13.0 +9.0 77 +12 +12 994.9
СЗ 6
{8}
16 км 10/10 1380 м +13.0 +8.0 72 +11 +11 994.9
СЗ 5
{8}
16 км 8/8 1170 м +13.0 +8.0 72 +11 +11 994.9
СЗ 3 16 км 10/10 1170 м +13.0 +8.0 72 +12 +12 995.3
СЗ 5
{9}
16 км 8/8 1110 м +13.0 +7.0 67 +11 +11 995.3
СЗ 5
{10}
16 км 8/8 1140 м +13.0 +7.0 67 +11 +11 995.3
Местоположение метеостанции Ken Jernstedt Airfield: широта 45.6746 долгота -121.5349 высота над уровнем моря 183 м.
В архиве по умолчанию представлена погода в Худ Ривер за последние 1-2 суток. Обновление информации о фактической погоде в базе происходит ежечасно! Архивные данные за месяц целиком и за предыдущие месяцы Вы можете получить, выбрав интересующий диапазон дат из раскрывающегося списка и нажав кнопку "Ввод!".
Внимание! Архив погоды МЕТАР в базе сайта по станциям, не включенным в климатический монитор, хранится не более 60 дней. Нет смысла пытаться выбрать более раннюю дату.
*Определитесь, кто Вы:
Внимание! Время в таблицах - местное (без учета летнего времени). Для получения всемирного времени необходимо вычесть поправку, которая равна -8 ч.
Смотрите также архив погоды в соседних городах и на ближайших метеорологических станциях:
Партнеры нашего сайта:      
Пояснения к столбцам:
  • Ветер - указаны скорость ветра в м/с - средняя за 10 мин, порывы в срок и между сроками (в фигурных скобках) и направление, откуда дует ветер: С - северный,
  • СВ - северо-восточный, В - восточный, ЮВ - юго-восточный, Ю - южный, ЮЗ - юго-западный, З - западный, СЗ - северо-западный.
  • Видимость - горизонтальная дальность видимости в метрах или километрах. При видимости от 1 до 10 км при отсутствии осадков обычно наблюдается дымка, при ухудшении видимости до 1 км и менее - туман. В сухую погоду видимость может ухудшаться дымом, пылью или мглою.
  • Явления - указаны атмосферные явления, наблюдавшиеся в срок или в последний час перед сроком; фигурными скобками обозначены явления, наблюдавшиеся между сроками (за 1-3 часа до срока); квадратными скобками обозначены град или гололедные отложения с указанием их диаметра в мм.
  • Облачность - указаны через наклонную черту общая и нижняя облачность в баллах и высота нижней границы облаков в метрах; квадратными скобками обозначены формы облаков: Ci - перистые, Cs - перисто-слоистые, Cc - перисто-кучевые, Ac - высококучевые, As - высокослоистые, Sc - слоисто-кучевые, Ns - слоисто-дождевые, Cu - кучевые, Cb - кучево-дождевые. Подробнее классификацию облаков см. в Атласе облаков (PDF).
  • T - Температура воздуха - температура, измеренная на высоте 2 м над землей.
  • Td - Температура точки росы - температура, при понижении до которой содержащийся в воздухе водяной пар достигнет насыщения.
  • f - Относительная влажность воздуха - влажноcть воздуха, измеренная на высоте 2 м над землей.
  • Te - Эффективная температура - температура, которую ощущает одетый по сезону человек в тени. Характеристика душности погоды. При расчете учитывается влияние влажности воздуха и скорости ветра на теплоощущения человека.
  • Tes - Эффективная температура на солнце - температура, которую ощущает человек, с поправкой на солнечный нагрев. Характеристика знойности погоды. Зависит от высоты солнца над горизонтом, облачности и скорости ветра. Ночью, в пасмурную погоду, а также при ветре 12 м/с и более поправка равна нулю.
  • P - Атмосферное давление - приведенное к уровню моря атмосферное давление.
  • Po - Атмосферное давление - измеренное на уровне метеостанции атмосферное давление.
  • Tmin - Минимальная температура - минимум температуры воздуха на высоте 2 м над землей.
  • Tmax - Максимальная температура - максимум температуры воздуха на высоте 2 м над землей.
  • R - Количество осадков - Количество выпавших осадков за период времени, мм. При наведении курсора мыши на число - период времени, за который выпало указанное количество осадков.
  • R24 - Количество осадков - Количество выпавших осадков за 24 часа, мм.
  • S - Снежный покров - Высота снежного покрова, см. При наведении курсора мыши на число - состояние снежного покрова и степень покрытия местности в баллах.